Polfoss — V2PN7 — position and weather

sailwx.info

Track history (hours):
 
Tides and Currents Weather Stations Pressure Air Temp Water Temp Dewpoint Dewpoint Depression Visibility Wind Speed Wind Dir Waves Ship Positions

Polfoss

Last reported at 2014-Oct-31 04:15 UTC. Time now 2014-Oct-31 07:04 UTC.
Position N 70°43' E 023°35'.

Length 82 m; draft 5.4 m.

Type: Cargo ship. MMSI: 305081000.

Date/timePositionNaut miles runAvg speedWind from/ knotsBaromVisibWave heightAir tempDewpointWater temp
2014-Oct-31 04:15N 70°43' E 023°35'6 7.7
2014-Oct-31 03:32N 70°38' E 023°40'0 0.0
2014-Oct-31 02:16N 70°38' E 023°40'0 0.0
2014-Oct-31 01:28N 70°38' E 023°40'0 0.0
2014-Oct-31 00:31N 70°38' E 023°40'0 0.0
2014-Oct-30 23:31N 70°38' E 023°40'0 0.0
2014-Oct-30 22:28N 70°38' E 023°40'0 0.0
2014-Oct-30 21:32N 70°38' E 023°40'0 0.0
2014-Oct-30 19:17N 70°38' E 023°40'3 3.0
2014-Oct-30 18:22N 70°38' E 023°32'1414.6
2014-Oct-30 17:26N 70°31' E 022°57'9313.6
2014-Oct-30 10:33N 69°42' E 019°03'3 3.4
2014-Oct-30 09:33N 69°39' E 018°58'0 0.0
2014-Oct-30 08:33N 69°39' E 018°58'0 0.0
2014-Oct-30 07:33N 69°39' E 018°58'0 0.0
2014-Oct-30 06:33N 69°39' E 018°58'0 0.3
2014-Oct-30 05:33N 69°39' E 018°59'2 1.8
2014-Oct-30 04:33N 69°38' E 018°57'5 0.9
2014-Oct-29 22:33N 69°34' E 018°47'152 5.9
2014-Oct-28 20:34N 67°38' E 014°15'1514.8
2014-Oct-28 19:34N 67°24' E 014°26'1515.5
2014-Oct-28 18:33N 67°11' E 014°04'1514.5
2014-Oct-28 17:33N 67°00' E 013°39'3213.8
2014-Oct-28 15:13N 66°32' E 012°58'1015.1
2014-Oct-28 14:32N 66°22' E 012°58'7414.5
2014-Oct-28 09:24N 65°12' E 011°53'1214.8
2014-Oct-28 08:33N 65°01' E 011°41'1515.0
2014-Oct-28 07:34N 64°51' E 011°14'  
2014-Oct-25 17:33N 59°15' E 005°21'1312.9
2014-Oct-25 16:34N 59°04' E 005°34'1110.9
2014-Oct-25 15:34N 58°55' E 005°46'4 3.8
2014-Oct-25 14:33N 58°51' E 005°45'0 0.0
2014-Oct-25 13:34N 58°51' E 005°45'1110.5
2014-Oct-25 12:34N 59°02' E 005°47'1010.0
2014-Oct-25 11:33N 58°55' E 005°32'1312.9
2014-Oct-25 10:33N 58°47' E 005°13'21914.4
2014-Oct-24 19:24N 57°22' W 001°08'1315.1
2014-Oct-24 18:31N 57°16' W 001°30'2014.7
2014-Oct-24 17:10N 57°08' W 002°04'1 1.1
2014-Oct-24 16:33N 57°09' W 002°05'0 0.0
2014-Oct-24 15:33N 57°09' W 002°05'0 0.0
2014-Oct-24 14:33N 57°09' W 002°05'0 0.0
2014-Oct-24 13:33N 57°09' W 002°05'0 0.0
2014-Oct-24 12:33N 57°09' W 002°05'0 0.0
2014-Oct-24 11:33N 57°09' W 002°05'0 0.0
2014-Oct-24 10:33N 57°09' W 002°05'0 0.0
2014-Oct-24 09:33N 57°09' W 002°05'12912.4
2014-Oct-23 23:08N 55°10' W 000°37'915.0
2014-Oct-23 22:33N 55°01' W 000°31'1515.3
2014-Oct-23 21:33N 54°47' W 000°22'1615.7
2014-Oct-23 20:34N 54°33' W 000°12'1615.5
2014-Oct-23 19:33N 54°18' W 000°03'1514.9
2014-Oct-23 18:34N 54°04' E 000°07'1414.2
2014-Oct-23 17:34N 53°51' E 000°16'1313.1
2014-Oct-23 16:33N 53°39' E 000°22'1110.7
2014-Oct-23 15:34N 53°34' E 000°06'6 6.4
2014-Oct-23 14:33N 53°35' W 000°04'0 0.3
2014-Oct-23 13:33N 53°35' W 000°04'0 0.0
2014-Oct-23 12:34N 53°35' W 000°04'0 0.0
2014-Oct-23 11:34N 53°35' W 000°04'0 0.0
2014-Oct-23 10:33N 53°35' W 000°04'0 0.0
2014-Oct-23 09:33N 53°35' W 000°04'0 0.0
2014-Oct-23 08:34N 53°35' W 000°04'0 0.0
2014-Oct-23 07:34N 53°35' W 000°04'0 0.0
2014-Oct-23 06:34N 53°35' W 000°04'0 0.0
2014-Oct-23 05:34N 53°35' W 000°04'0 0.0
2014-Oct-23 04:33N 53°35' W 000°04'0 0.0
2014-Oct-23 03:34N 53°35' W 000°04'0 0.0
2014-Oct-23 02:34N 53°35' W 000°04'0 0.0
2014-Oct-23 01:33N 53°35' W 000°04'0 0.0
2014-Oct-23 00:34N 53°35' W 000°04'0 0.0
2014-Oct-22 23:34N 53°35' W 000°04'0 0.0
2014-Oct-22 22:33N 53°35' W 000°04'0 0.0
2014-Oct-22 21:33N 53°35' W 000°04'0 0.0
2014-Oct-22 20:34N 53°35' W 000°04'0 0.0
2014-Oct-22 19:33N 53°35' W 000°04'0 0.0
2014-Oct-22 18:33N 53°35' W 000°04'0 0.0
2014-Oct-22 17:34N 53°35' W 000°04'2 1.9
2014-Oct-22 16:34N 53°35' W 000°01'1 0.8
2014-Oct-22 15:33N 53°36' W 000°01'8 8.0
2014-Oct-22 14:34N 53°33' E 000°12'7 7.3
2014-Oct-22 13:33N 53°30' E 000°23'4310.8
2014-Oct-22 09:33N 53°12' E 001°29'1212.2
2014-Oct-22 08:33N 53°07' E 001°48'1110.3
2014-Oct-22 07:29N 53°02' E 002°04'59 4.2
2014-Oct-21 17:15N 52°38' E 003°34'2 3.1
2014-Oct-21 16:33N 52°37' E 003°37'4 3.7
2014-Oct-21 15:33N 52°35' E 003°42'14 6.6
2014-Oct-21 13:30N 52°31' E 004°04'9 9.2
2014-Oct-21 12:33N 52°30' E 004°18'10 9.5
2014-Oct-21 11:33N 52°28' E 004°33'3 3.4
2014-Oct-21 10:33N 52°28' E 004°39'1 0.8
2014-Oct-21 09:33N 52°28' E 004°40'0 0.0
2014-Oct-21 08:33N 52°28' E 004°40'0 0.0
2014-Oct-21 07:33N 52°28' E 004°40'0 0.0
2014-Oct-21 06:33N 52°28' E 004°40'0 0.0
2014-Oct-21 05:33N 52°28' E 004°40'0 0.0
2014-Oct-21 04:33N 52°28' E 004°40'  
Track history (hours):
 
Tides and Currents Weather Stations Pressure Air Temp Water Temp Dewpoint Dewpoint Depression Visibility Wind Speed Wind Dir Waves Ship Positions

Polfoss

Last reported at 2014-Oct-31 04:15 UTC. Time now 2014-Oct-31 07:04 UTC.
Position N 70°43' E 023°35'.

Length 82 m; draft 5.4 m.

Type: Cargo ship. MMSI: 305081000.

Date/timePositionNaut miles runAvg speedWind from/ knotsBaromVisibWave heightAir tempDewpointWater temp
2014-Oct-31 04:15N 70°43' E 023°35'6 7.7
2014-Oct-31 03:32N 70°38' E 023°40'0 0.0
2014-Oct-31 02:16N 70°38' E 023°40'0 0.0
2014-Oct-31 01:28N 70°38' E 023°40'0 0.0
2014-Oct-31 00:31N 70°38' E 023°40'0 0.0
2014-Oct-30 23:31N 70°38' E 023°40'0 0.0
2014-Oct-30 22:28N 70°38' E 023°40'0 0.0
2014-Oct-30 21:32N 70°38' E 023°40'0 0.0
2014-Oct-30 19:17N 70°38' E 023°40'3 3.0
2014-Oct-30 18:22N 70°38' E 023°32'1414.6
2014-Oct-30 17:26N 70°31' E 022°57'9313.6
2014-Oct-30 10:33N 69°42' E 019°03'3 3.4
2014-Oct-30 09:33N 69°39' E 018°58'0 0.0
2014-Oct-30 08:33N 69°39' E 018°58'0 0.0
2014-Oct-30 07:33N 69°39' E 018°58'0 0.0
2014-Oct-30 06:33N 69°39' E 018°58'0 0.3
2014-Oct-30 05:33N 69°39' E 018°59'2 1.8
2014-Oct-30 04:33N 69°38' E 018°57'5 0.9
2014-Oct-29 22:33N 69°34' E 018°47'152 5.9
2014-Oct-28 20:34N 67°38' E 014°15'1514.8
2014-Oct-28 19:34N 67°24' E 014°26'1515.5
2014-Oct-28 18:33N 67°11' E 014°04'1514.5
2014-Oct-28 17:33N 67°00' E 013°39'3213.8
2014-Oct-28 15:13N 66°32' E 012°58'1015.1
2014-Oct-28 14:32N 66°22' E 012°58'7414.5
2014-Oct-28 09:24N 65°12' E 011°53'1214.8
2014-Oct-28 08:33N 65°01' E 011°41'1515.0
2014-Oct-28 07:34N 64°51' E 011°14'  
2014-Oct-25 17:33N 59°15' E 005°21'1312.9
2014-Oct-25 16:34N 59°04' E 005°34'1110.9
2014-Oct-25 15:34N 58°55' E 005°46'4 3.8
2014-Oct-25 14:33N 58°51' E 005°45'0 0.0
2014-Oct-25 13:34N 58°51' E 005°45'1110.5
2014-Oct-25 12:34N 59°02' E 005°47'1010.0
2014-Oct-25 11:33N 58°55' E 005°32'1312.9
2014-Oct-25 10:33N 58°47' E 005°13'21914.4
2014-Oct-24 19:24N 57°22' W 001°08'1315.1
2014-Oct-24 18:31N 57°16' W 001°30'2014.7
2014-Oct-24 17:10N 57°08' W 002°04'1 1.1
2014-Oct-24 16:33N 57°09' W 002°05'0 0.0
2014-Oct-24 15:33N 57°09' W 002°05'0 0.0
2014-Oct-24 14:33N 57°09' W 002°05'0 0.0
2014-Oct-24 13:33N 57°09' W 002°05'0 0.0
2014-Oct-24 12:33N 57°09' W 002°05'0 0.0
2014-Oct-24 11:33N 57°09' W 002°05'0 0.0
2014-Oct-24 10:33N 57°09' W 002°05'0 0.0
2014-Oct-24 09:33N 57°09' W 002°05'12912.4
2014-Oct-23 23:08N 55°10' W 000°37'915.0
2014-Oct-23 22:33N 55°01' W 000°31'1515.3
2014-Oct-23 21:33N 54°47' W 000°22'1615.7
2014-Oct-23 20:34N 54°33' W 000°12'1615.5
2014-Oct-23 19:33N 54°18' W 000°03'1514.9
2014-Oct-23 18:34N 54°04' E 000°07'1414.2
2014-Oct-23 17:34N 53°51' E 000°16'1313.1
2014-Oct-23 16:33N 53°39' E 000°22'1110.7
2014-Oct-23 15:34N 53°34' E 000°06'6 6.4
2014-Oct-23 14:33N 53°35' W 000°04'0 0.3
2014-Oct-23 13:33N 53°35' W 000°04'0 0.0
2014-Oct-23 12:34N 53°35' W 000°04'0 0.0
2014-Oct-23 11:34N 53°35' W 000°04'0 0.0
2014-Oct-23 10:33N 53°35' W 000°04'0 0.0
2014-Oct-23 09:33N 53°35' W 000°04'0 0.0
2014-Oct-23 08:34N 53°35' W 000°04'0 0.0
2014-Oct-23 07:34N 53°35' W 000°04'0 0.0
2014-Oct-23 06:34N 53°35' W 000°04'0 0.0
2014-Oct-23 05:34N 53°35' W 000°04'0 0.0
2014-Oct-23 04:33N 53°35' W 000°04'0 0.0
2014-Oct-23 03:34N 53°35' W 000°04'0 0.0
2014-Oct-23 02:34N 53°35' W 000°04'0 0.0
2014-Oct-23 01:33N 53°35' W 000°04'0 0.0
2014-Oct-23 00:34N 53°35' W 000°04'0 0.0
2014-Oct-22 23:34N 53°35' W 000°04'0 0.0
2014-Oct-22 22:33N 53°35' W 000°04'0 0.0
2014-Oct-22 21:33N 53°35' W 000°04'0 0.0
2014-Oct-22 20:34N 53°35' W 000°04'0 0.0
2014-Oct-22 19:33N 53°35' W 000°04'0 0.0
2014-Oct-22 18:33N 53°35' W 000°04'0 0.0
2014-Oct-22 17:34N 53°35' W 000°04'2 1.9
2014-Oct-22 16:34N 53°35' W 000°01'1 0.8
2014-Oct-22 15:33N 53°36' W 000°01'8 8.0
2014-Oct-22 14:34N 53°33' E 000°12'7 7.3
2014-Oct-22 13:33N 53°30' E 000°23'4310.8
2014-Oct-22 09:33N 53°12' E 001°29'1212.2
2014-Oct-22 08:33N 53°07' E 001°48'1110.3
2014-Oct-22 07:29N 53°02' E 002°04'59 4.2
2014-Oct-21 17:15N 52°38' E 003°34'2 3.1
2014-Oct-21 16:33N 52°37' E 003°37'4 3.7
2014-Oct-21 15:33N 52°35' E 003°42'14 6.6
2014-Oct-21 13:30N 52°31' E 004°04'9 9.2
2014-Oct-21 12:33N 52°30' E 004°18'10 9.5
2014-Oct-21 11:33N 52°28' E 004°33'3 3.4
2014-Oct-21 10:33N 52°28' E 004°39'1 0.8
2014-Oct-21 09:33N 52°28' E 004°40'0 0.0
2014-Oct-21 08:33N 52°28' E 004°40'0 0.0
2014-Oct-21 07:33N 52°28' E 004°40'0 0.0
2014-Oct-21 06:33N 52°28' E 004°40'0 0.0
2014-Oct-21 05:33N 52°28' E 004°40'0 0.0
2014-Oct-21 04:33N 52°28' E 004°40'  

Dump ship's entire track history